Regional Weather Roundup
Issued by NWS

Home | Current Version | Previous Version | Graphics & Text | Print | Product List | Glossary On
Versions: 1 2 3 4 5 6 7 8 9 10 11 12 13 14 15 16 17 18 19 20 21 22 23 24 25 26 27 28 29 30 31 32 33 34 35 36 37 38 39 40 41 42 43 44 45 46 47 48 49 50
000
ASUS43 KDTX 231410
RWRMI
MICHIGAN HOURLY REGIONAL WEATHER ROUNDUP
NATIONAL WEATHER SERVICE DETROIT/PONTIAC MI
1000 AM EDT WED JUL 23 2014

NOTE: "FAIR" INDICATES FEW OR NO CLOUDS BELOW 12,000 FEET WITH NO
SIGNIFICANT WEATHER AND/OR OBSTRUCTION TO VISIBILITY.

MIZ047>049-052>055-059>063-066>070-074>076-081>083-231500-
SOUTHEAST LOWER MICHIGAN

CITY           SKY/WX    TMP DP  RH WIND       PRES   REMARKS
ADRIAN         CLOUDY    68  60  75 NE12      30.02S
ALMA           PTSUNNY   65  55  68 N12G23    30.09R
ANN ARBOR      CLOUDY    68  58  70 N12       30.01S
BAD AXE        CLOUDY    62  55  78 N16G22    30.04R
DETROIT CITY   CLOUDY    66  60  81 N12       30.00R
DETROIT        CLOUDY    69  61  75 NW8       30.00R
FLINT          CLOUDY    68  56  65 N10       30.04R
GROSSE ILE     CLOUDY    70  63  78 N12       29.98R
HILLSDALE      MOSUNNY   68  62  80 N13       30.03S
HOWELL         CLOUDY    64  57  78 NW10      30.04R

CITY           SKY/WX    TMP DP  RH WIND       PRES   REMARKS
JACKSON        CLOUDY    65  58  78 N9        30.04R
LAMBERTVILLE   CLOUDY    70  61  73 N9        30.00S
LANSING        MOSUNNY   65  55  70 N12G18    30.07R
LAPEER         NOT AVBL
MASON          CLOUDY    64  57  77 N8G16     30.06R
MONROE         CLOUDY    68  64  88 N9G16     29.98S
MT. CLEMENS    CLOUDY    66  60  80 N13G22    29.99R
PONTIAC        PTSUNNY   66  57  72 N16G22    30.01S
PORT HOPE        N/A     65  57  75 CALM      30.02F
PORT HURON     CLOUDY    64  59  82 N12G18    30.00S
TRI CITIES     CLOUDY    67  55  65 N13       30.07S
YPSILANTI      CLOUDY    72  60  66 N12       30.01R
$$
MIZ043>046-050>051-056>058-064>065-071>073-077>080-231500-
SOUTHWEST LOWER MICHIGAN

CITY           SKY/WX    TMP DP  RH WIND       PRES   REMARKS
BATTLE CREEK   CLOUDY    67  57  70 N14       30.07R
BENTON HARBOR    N/A     64  56  75 NE9       30.09S
BIG RAPIDS     PTSUNNY   63  53  69 N12G21    30.11R
COLDWATER      CLOUDY    66  60  81 N12       30.04S
HOLLAND        PTSUNNY   67  57  70 N10G16    30.11R
GRAND RAPIDS   PTSUNNY   68  57  68 N14       30.10R
KALAMAZOO      CLOUDY    66  57  72 N14       30.07S
MARSHALL       CLOUDY    63  57  80 N7        30.06R
MUSKEGON       PTSUNNY   68  56  65 NE9       30.12S
$$
MIZ016>042-231500-
NORTHERN LOWER MICHIGAN

CITY           SKY/WX    TMP DP  RH WIND       PRES   REMARKS
ALPENA         CLOUDY    63  55  75 N10       30.09F
BEAVER ISLAND  MOSUNNY   57  52  81 N10       30.16F
BELLAIRE       CLOUDY    61  53  76 N7        30.13F
CADILLAC       CLOUDY    58  55  89 N6        30.12S
CHARLEVOIX     CLOUDY    59  55  85 N12G17    30.17S
FRANKFORT      CLOUDY    60  53  79 N9G16     30.15F
GAYLORD        CLOUDY    57  52  83 VRB7      30.13R
GRAYLING       CLOUDY    60  55  83 NW9       30.12F
HARBOR SPRINGS CLOUDY    61  53  75 N7        30.13F
HOUGHTON LAKE  CLOUDY    64  55  72 N12       30.11F
MANISTEE       CLOUDY    61  54  77 N8        30.15S
OSCODA         PTSUNNY   66  52  61 N14G22    30.05F
PELLSTON       CLOUDY    61  54  77 NW10      30.13F
TRAVERSE CITY  CLOUDY    62  53  72 N9        30.12F
$$
MIZ007>008-015-231500-
EASTERN UPPER MICHIGAN

CITY           SKY/WX    TMP DP  RH WIND       PRES   REMARKS
KINROSS        CLOUDY    57  54  88 N9        30.14S
MACKINAC ISLAN CLOUDY    58  53  83 N9        30.13S
NEWBERRY       CLOUDY    55  49  81 N10G20    30.17S
S. S. MARIE    CLOUDY    61  49  64 N8        30.13S
$$
MIZ004>006-011>014-085-231500-
CENTRAL UPPER MICHIGAN

CITY           SKY/WX    TMP DP  RH WIND       PRES   REMARKS
MANISTIQUE     CLOUDY    56  50  79 N10G18    30.18S
ESCANABA       MOSUNNY   57  48  72 N14G21    30.20R
MENOMINEE      SUNNY     63  50  63 NE10      30.20S
SAWYER-GWINN   SUNNY     57  50  77 NE13G21   30.23R
$$
MIZ001>003-009>011-084-231500-
WESTERN UPPER MICHIGAN

CITY           SKY/WX    TMP DP  RH WIND       PRES   REMARKS
IRON MOUNTAIN  SUNNY     62  48  60 N12       30.22R
HOUGHTON       SUNNY     64  49  57 N7        30.23R
COPPER HARBOR    N/A     58  53  84 N12       30.22S
$$

ABBREVIATIONS USED IN REMARKS
   TC - TEMPERATURE IN CELSIUS
  WCI - WIND CHILL INDEX
   HX - HEAT INDEX
  VSB - VISIBILITY



USA.gov is the U.S. government's official web portal to all federal, state and local government web resources and services.